Lake Burton Weather Center

Moon Phase Calendar



Lake Burton Water Level
Online Cameras

 


      

Current Conditions in Clayton
6/21/2024 10:25:56 AM

77°F
Feels Like 78
Clear
Humidity
71%
Pressure
30.27"
Wind
2.6 mph (ESE)
Dew Point
67°F
UV Index
4/10 (Moderate)
Visibility
6 mi

Hourly Forecast

Date & Time Fri, Jun 21
10:00 AM
Fri, Jun 21
11:00 AM
Fri, Jun 21
12:00 PM
Fri, Jun 21
1:00 PM
Fri, Jun 21
2:00 PM
Fri, Jun 21
3:00 PM
Fri, Jun 21
4:00 PM
Fri, Jun 21
5:00 PM
Fri, Jun 21
6:00 PM
Fri, Jun 21
7:00 PM
Fri, Jun 21
8:00 PM
Fri, Jun 21
9:00 PM
Fri, Jun 21
10:00 PM
Fri, Jun 21
11:00 PM
Sat, Jun 22
12:00 AM
Sat, Jun 22
1:00 AM
Sat, Jun 22
2:00 AM
Sat, Jun 22
3:00 AM
Sat, Jun 22
4:00 AM
Sat, Jun 22
5:00 AM
Sat, Jun 22
6:00 AM
Sat, Jun 22
7:00 AM
Sat, Jun 22
8:00 AM
Sat, Jun 22
9:00 AM
Sat, Jun 22
10:00 AM
Sat, Jun 22
11:00 AM
Sat, Jun 22
12:00 PM
Sat, Jun 22
1:00 PM
Sat, Jun 22
2:00 PM
Sat, Jun 22
3:00 PM
Sat, Jun 22
4:00 PM
Sat, Jun 22
5:00 PM
Sat, Jun 22
6:00 PM
Sat, Jun 22
7:00 PM
Sat, Jun 22
8:00 PM
Sat, Jun 22
9:00 PM
Sat, Jun 22
10:00 PM
Sat, Jun 22
11:00 PM
Sun, Jun 23
12:00 AM
Sun, Jun 23
1:00 AM
Sun, Jun 23
2:00 AM
Sun, Jun 23
3:00 AM
Sun, Jun 23
4:00 AM
Sun, Jun 23
5:00 AM
Sun, Jun 23
6:00 AM
Sun, Jun 23
7:00 AM
Sun, Jun 23
8:00 AM
Sun, Jun 23
9:00 AM
Condition
Clear

Clear

Clear

Clear

Clear

Clouds

Clouds

Clouds

Clouds

Clouds

Clouds

Clouds

Clouds

Clouds

Clouds

Clouds

Clouds

Clear

Clear

Clear

Clear

Clear

Clear

Clear

Clear

Clear

Clear

Clear

Clear

Clouds

Clouds

Clouds

Clouds

Clouds

Clouds

Clouds

Clouds

Clouds

Clouds

Clouds

Clouds

Clouds

Clouds

Clouds

Clouds

Clouds

Clouds

Clouds
Temperature 77°F78°F80°F82°F84°F85°F84°F85°F85°F82°F78°F76°F75°F75°F74°F72°F72°F68°F67°F66°F66°F67°F72°F77°F81°F84°F86°F88°F89°F89°F87°F85°F83°F80°F78°F77°F77°F75°F74°F75°F74°F72°F69°F68°F69°F70°F74°F78°F
Feels Like 78°F79°F80°F83°F85°F86°F85°F86°F86°F85°F78°F76°F75°F75°F74°F72°F72°F68°F67°F66°F66°F67°F73°F78°F83°F86°F87°F88°F89°F89°F87°F85°F84°F82°F78°F77°F77°F75°F74°F75°F74°F73°F70°F69°F69°F71°F75°F79°F
Cloudiness 0%0%1%4%8%35%48%70%77%77%80%100%91%93%92%82%82%3%10%5%4%3%2%3%2%2%1%4%6%34%39%42%52%63%69%100%100%97%89%94%96%100%59%43%47%51%52%59%
Visibility 6 mi6 mi6 mi6 mi6 mi6 mi6 mi6 mi6 mi6 mi6 mi6 mi6 mi6 mi6 mi6 mi6 mi6 mi6 mi6 mi6 mi6 mi6 mi6 mi6 mi6 mi6 mi6 mi6 mi6 mi6 mi6 mi6 mi6 mi6 mi6 mi6 mi6 mi6 mi6 mi6 mi6 mi6 mi6 mi6 mi6 mi6 mi6 mi
Precipitation 0%0%0%0%0%0%0%0%0%0%0%0%0%0%0%0%0%0%0%0%0%0%0%0%0%0%0%0%0%0%0%0%0%0%0%0%0%0%0%0%0%0%0%0%0%0%0%0%
Humidity 71%67%62%54%47%44%48%45%48%61%68%67%67%66%67%68%68%76%78%81%85%87%79%69%59%51%46%41%37%37%42%46%51%59%59%58%59%61%63%62%65%71%81%86%84%83%78%70%
Dew Point 67°F66°F65°F64°F62°F60°F61°F61°F62°F66°F65°F63°F62°F61°F61°F60°F59°F59°F59°F59°F60°F62°F64°F65°F65°F63°F62°F61°F59°F58°F59°F60°F62°F63°F61°F60°F60°F60°F60°F60°F61°F61°F62°F62°F63°F64°F66°F66°F
Pressure 30.27"30.27"30.27"30.24"30.21"30.15"30.15"30.12"30.12"30.12"30.15"30.15"30.15"30.15"30.18"30.15"30.18"30.18"30.18"30.18"30.18"30.18"30.18"30.18"30.15"30.15"30.12"30.09"30.06"30.03"30.03"30.03"30"30"30"30"30.03"30.03"30.03"30.03"30.03"30.03"30.03"30.03"30.03"30"30"30"
Wind Speed 2.6 mph2.9 mph3.5 mph4.8 mph6.4 mph7 mph5.3 mph2.9 mph2.3 mph2.1 mph2.4 mph3.7 mph3.4 mph3 mph2.9 mph2.6 mph2.7 mph2.7 mph3 mph2.6 mph2.7 mph2.9 mph1.8 mph0.3 mph1.4 mph2.5 mph3.4 mph4.6 mph6.3 mph7 mph6.9 mph5.3 mph3.2 mph0.3 mph4 mph2.3 mph1.1 mph0.8 mph0.7 mph1 mph1.9 mph2 mph0.9 mph0.9 mph1.9 mph1.8 mph1.4 mph1.8 mph
Wind
Direction
120°
ESE
121°
ESE
123°
ESE
136°
SE
142°
SE
142°
SE
136°
SE
128°
SE
102°
ESE
74°
ENE
33°
NNE
18°
NNE
23°
NNE
35°
NE
43°
NE
64°
ENE
97°
E
68°
ENE
47°
NE
34°
NE

N

N
14°
NNE
45°
NE
180°
S
181°
S
162°
SSE
164°
SSE
165°
SSE
163°
SSE
155°
SSE
149°
SSE
148°
SSE
79°
E
331°
NNW
337°
NNW
17°
NNE
20°
NNE
259°
W
242°
WSW
183°
S
197°
SSW
271°
W
307°
NW
334°
NNW
335°
NNW
295°
WNW
256°
WSW

Daily Forecast

Date High Low Precip. Humidity
Today
Jun 21

Clear
85 °F
64 °F
0%
54%
Saturday
Jun 22

Clear
89 °F
66 °F
0%
41%
Sunday
Jun 23

Rain
90 °F
68 °F
58%
45%
Monday
Jun 24

Clear
93 °F
69 °F
0%
30%
Tuesday
Jun 25

Rain
95 °F
71 °F
68%
31%
Wednesday
Jun 26

Rain
89 °F
69 °F
100%
46%
Thursday
Jun 27

Rain
70 °F
67 °F
100%
96%
Friday
Jun 28

Rain
74 °F
67 °F
100%
97%
Saturday
Jun 29

Rain
89 °F
68 °F
100%
45%
Sunday
Jun 30

Rain
87 °F
69 °F
99%
51%
Monday
Jul 1

Rain
83 °F
69 °F
100%
72%
Tuesday
Jul 2

Rain
82 °F
68 °F
100%
73%
Wednesday
Jul 3

Rain
82 °F
70 °F
100%
86%
Thursday
Jul 4

Rain
89 °F
69 °F
60%
49%
Friday
Jul 5

Rain
90 °F
70 °F
71%
72%
Saturday
Jul 6

Rain
85 °F
69 °F
100%
65%

Temperature 8-14 Day Outlook



Precipitation 8-14 Day Outlook






About Us
Contact Us
Site Map
Search Site
Advertise With Us
   
Burton.USLakes.info
THE LAKE BURTON WEBSITE

Copyright 2024, Lakes Online
Privacy    |    Legal